When you browse on this site, cookies collect data to enhance your experience and personalize the content and advertising you see.
Visit our Privacy Policy to learn more. By continuing to use the site, you agree to this use of cookies and data.

Meteo pe oră la Dzielawy

Astăzi, 25 Septembrie, Vineri

Timp Temperatura Precipitaţii Vânt Presiune Umiditate
00:00 +17°C° 0 mm 2 m/s 735 mmHg 78%
01:00 +17°C° 0 mm 3 m/s 735 mmHg 79%
02:00 +16°C° 0 mm 3 m/s 734 mmHg 79%
03:00 +16°C° 0 mm 3 m/s 733 mmHg 79%
04:00 +16°C° 0 mm 3 m/s 733 mmHg 80%
05:00 +17°C° 0 mm 4 m/s 732 mmHg 76%
06:00 +17°C° 0 mm 4 m/s 731 mmHg 73%
07:00 +17°C° 0 mm 5 m/s 731 mmHg 70%
08:00 +19°C° 0 mm 6 m/s 731 mmHg 66%
09:00 +21°C° 0 mm 7 m/s 731 mmHg 62%
10:00 +22°C° 0 mm 8 m/s 730 mmHg 59%
11:00 +21°C° 0.6 mm 7 m/s 730 mmHg 65%
12:00 +20°C° 0.6 mm 7 m/s 730 mmHg 72%
13:00 +18°C° 0.6 mm 7 m/s 730 mmHg 78%
14:00 +17°C° 0.2 mm 5 m/s 729 mmHg 80%
15:00 +18°C° 0.2 mm 4 m/s 729 mmHg 81%
16:00 +17°C° 0.2 mm 2 m/s 729 mmHg 82%
17:00 +17°C° 0.1 mm 2 m/s 729 mmHg 84%
18:00 +16°C° 0.1 mm 1 m/s 729 mmHg 85%
19:00 +16°C° 0.1 mm 1 m/s 729 mmHg 87%
20:00 +16°C° 0.3 mm 1 m/s 728 mmHg 88%
21:00 +15°C° 0.3 mm 1 m/s 728 mmHg 90%
22:00 +15°C° 0.3 mm 2 m/s 728 mmHg 91%
23:00 +15°C° 0.6 mm 2 m/s 727 mmHg 92%

Mâine, 26 Septembrie, Sâmbătă

Timp Temperatura Precipitaţii Vânt Presiune Umiditate
00:00 +14°C° 0.6 mm 3 m/s 726 mmHg 93%
01:00 +14°C° 0.6 mm 3 m/s 725 mmHg 93%
02:00 +14°C° 1.3 mm 3 m/s 725 mmHg 93%
03:00 +14°C° 1.3 mm 3 m/s 724 mmHg 93%
04:00 +16°C° 1.3 mm 3 m/s 723 mmHg 93%
05:00 +15°C° 0.7 mm 4 m/s 723 mmHg 92%
06:00 +15°C° 0.7 mm 4 m/s 723 mmHg 90%
07:00 +15°C° 0.7 mm 5 m/s 723 mmHg 88%
08:00 +14°C° 0.2 mm 6 m/s 723 mmHg 84%
09:00 +14°C° 0.2 mm 6 m/s 724 mmHg 79%
10:00 +12°C° 0.2 mm 7 m/s 725 mmHg 74%
11:00 +12°C° 0 mm 7 m/s 726 mmHg 72%
12:00 +12°C° 0 mm 7 m/s 726 mmHg 69%
13:00 +12°C° 0 mm 7 m/s 727 mmHg 67%
14:00 +13°C° 0 mm 6 m/s 728 mmHg 66%
15:00 +13°C° 0 mm 6 m/s 728 mmHg 65%
16:00 +12°C° 0 mm 5 m/s 729 mmHg 64%
17:00 +10°C° 0 mm 5 m/s 729 mmHg 67%
18:00 +10°C° 0 mm 4 m/s 730 mmHg 70%
19:00 +8°C° 0 mm 4 m/s 730 mmHg 72%
20:00 +9°C° 0 mm 3 m/s 730 mmHg 75%
21:00 +8°C° 0 mm 2 m/s 731 mmHg 77%
22:00 +9°C° 0 mm 1 m/s 731 mmHg 80%
23:00 +9°C° 0 mm 1 m/s 731 mmHg 80%

Poimâine, 27 Septembrie, Duminică

Timp Temperatura Precipitaţii Vânt Presiune Umiditate
00:00 +9°C° 0 mm 1 m/s 732 mmHg 80%
01:00 +9°C° 0 mm 1 m/s 732 mmHg 80%
02:00 +8°C° 0 mm 1 m/s 732 mmHg 80%
03:00 +7°C° 0 mm 2 m/s 732 mmHg 80%
04:00 +7°C° 0 mm 2 m/s 732 mmHg 81%
05:00 +7°C° 0 mm 2 m/s 732 mmHg 79%
06:00 +7°C° 0 mm 2 m/s 732 mmHg 78%
07:00 +8°C° 0 mm 2 m/s 732 mmHg 77%
08:00 +9°C° 0 mm 2 m/s 732 mmHg 71%
09:00 +12°C° 0 mm 2 m/s 733 mmHg 66%
10:00 +13°C° 0 mm 2 m/s 733 mmHg 60%
11:00 +13°C° 0 mm 3 m/s 733 mmHg 58%
12:00 +13°C° 0 mm 3 m/s 733 mmHg 55%
13:00 +14°C° 0 mm 4 m/s 733 mmHg 53%
14:00 +14°C° 0 mm 4 m/s 733 mmHg 54%
15:00 +14°C° 0 mm 4 m/s 733 mmHg 56%
16:00 +13°C° 0 mm 4 m/s 734 mmHg 58%
17:00 +12°C° 0 mm 4 m/s 734 mmHg 61%
18:00 +11°C° 0 mm 3 m/s 735 mmHg 65%
19:00 +10°C° 0 mm 3 m/s 735 mmHg 68%
20:00 +10°C° 0 mm 3 m/s 736 mmHg 70%
21:00 +9°C° 0 mm 3 m/s 736 mmHg 71%
22:00 +9°C° 0 mm 2 m/s 737 mmHg 72%
23:00 +9°C° 0 mm 2 m/s 737 mmHg 73%

28 Septembrie, Luni

Timp Temperatura Precipitaţii Vânt Presiune Umiditate
00:00 +8°C° 0 mm 2 m/s 737 mmHg 74%
01:00 +8°C° 0 mm 2 m/s 737 mmHg 75%
02:00 +8°C° 0 mm 3 m/s 738 mmHg 75%
03:00 +8°C° 0 mm 3 m/s 738 mmHg 76%
04:00 +8°C° 0 mm 3 m/s 738 mmHg 76%
05:00 +8°C° 0 mm 3 m/s 738 mmHg 75%
06:00 +9°C° 0 mm 3 m/s 738 mmHg 73%
07:00 +9°C° 0 mm 3 m/s 738 mmHg 72%
08:00 +11°C° 0 mm 4 m/s 738 mmHg 66%
09:00 +13°C° 0 mm 4 m/s 738 mmHg 59%
10:00 +15°C° 0 mm 5 m/s 739 mmHg 53%
11:00 +15°C° 0 mm 5 m/s 738 mmHg 53%
12:00 +15°C° 0 mm 5 m/s 738 mmHg 53%
13:00 +16°C° 0 mm 5 m/s 738 mmHg 53%
14:00 +15°C° 0 mm 5 m/s 738 mmHg 55%
15:00 +15°C° 0 mm 5 m/s 738 mmHg 58%
16:00 +15°C° 0 mm 4 m/s 738 mmHg 60%
17:00 +14°C° 0.1 mm 4 m/s 738 mmHg 64%
18:00 +13°C° 0.1 mm 4 m/s 738 mmHg 69%
19:00 +12°C° 0.1 mm 4 m/s 738 mmHg 73%
20:00 +12°C° 0.2 mm 4 m/s 738 mmHg 76%
21:00 +11°C° 0.2 mm 4 m/s 738 mmHg 80%
22:00 +10°C° 0.2 mm 5 m/s 737 mmHg 84%
23:00 +11°C° 0.5 mm 4 m/s 737 mmHg 85%

29 Septembrie, Marţi

Timp Temperatura Precipitaţii Vânt Presiune Umiditate
00:00 +11°C° 0.5 mm 4 m/s 737 mmHg 86%
01:00 +11°C° 0.5 mm 4 m/s 737 mmHg 86%
02:00 +11°C° 0.4 mm 4 m/s 737 mmHg 88%
03:00 +11°C° 0.4 mm 3 m/s 737 mmHg 89%
04:00 +11°C° 0.4 mm 3 m/s 737 mmHg 91%
05:00 +11°C° 0.3 mm 3 m/s 737 mmHg 91%
06:00 +11°C° 0.3 mm 3 m/s 737 mmHg 91%
07:00 +11°C° 0.3 mm 3 m/s 738 mmHg 92%
08:00 +12°C° 0.1 mm 4 m/s 738 mmHg 88%
09:00 +12°C° 0.1 mm 4 m/s 739 mmHg 84%
10:00 +13°C° 0.1 mm 5 m/s 739 mmHg 81%
11:00 +14°C° 0.1 mm 5 m/s 740 mmHg 76%
12:00 +14°C° 0.1 mm 5 m/s 740 mmHg 72%
13:00 +15°C° 0.1 mm 5 m/s 741 mmHg 67%
14:00 +15°C° 0.1 mm 5 m/s 741 mmHg 67%
15:00 +15°C° 0.1 mm 4 m/s 742 mmHg 67%
16:00 +15°C° 0.1 mm 4 m/s 742 mmHg 66%
17:00 +14°C° 0 mm 3 m/s 742 mmHg 72%
18:00 +13°C° 0 mm 3 m/s 743 mmHg 78%
19:00 +12°C° 0 mm 2 m/s 743 mmHg 83%
20:00 +12°C° 0 mm 2 m/s 743 mmHg 85%
21:00 +10°C° 0 mm 2 m/s 744 mmHg 86%
22:00 +10°C° 0 mm 2 m/s 744 mmHg 88%
23:00 +10°C° 0 mm 2 m/s 744 mmHg 89%

30 Septembrie, Miercuri

Timp Temperatura Precipitaţii Vânt Presiune Umiditate
00:00 +10°C° 0 mm 1 m/s 744 mmHg 90%
01:00 +10°C° 0 mm 1 m/s 744 mmHg 91%
02:00 +10°C° 0 mm 1 m/s 744 mmHg 91%
03:00 +10°C° 0 mm 1 m/s 743 mmHg 91%
04:00 +9°C° 0 mm 1 m/s 743 mmHg 91%
05:00 +10°C° 0 mm 1 m/s 743 mmHg 90%
06:00 +10°C° 0 mm 1 m/s 743 mmHg 88%
07:00 +11°C° 0 mm 1 m/s 743 mmHg 87%
08:00 +12°C° 0 mm 1 m/s 743 mmHg 79%
09:00 +14°C° 0 mm 1 m/s 743 mmHg 72%
10:00 +16°C° 0 mm 1 m/s 743 mmHg 65%
11:00 +18°C° 0 mm 1 m/s 742 mmHg 61%
12:00 +19°C° 0 mm 1 m/s 742 mmHg 57%
13:00 +20°C° 0 mm 1 m/s 742 mmHg 53%
14:00 +17°C° 0 mm 0 m/s 741 mmHg 53%
15:00 +17°C° 0 mm 0 m/s 741 mmHg 53%
16:00 +17°C° 0 mm 0 m/s 740 mmHg 54%
17:00 +15°C° 0 mm 0 m/s 741 mmHg 58%
18:00 +14°C° 0 mm 0 m/s 741 mmHg 63%
19:00 +12°C° 0 mm 0 m/s 741 mmHg 67%
20:00 +13°C° 0 mm 1 m/s 741 mmHg 69%
21:00 +13°C° 0 mm 1 m/s 741 mmHg 71%
22:00 +12°C° 0 mm 1 m/s 741 mmHg 73%
23:00 +12°C° 0 mm 1 m/s 740 mmHg 74%
Arată mai mult